CAPE
0 0 0 3 0 1 65 19 18 7 104 107 180 188 537 569 412 442 404 258 188 133 106 31 9 25 5 28 59 140 620 529 602 767 869 744 658 532 479 280 471 420 779 985
0 0 0 13 7 69 43 44 79 127 133 99 60 86 258 755 501 414 414 370 303 250 195 135 47 34 29 11 113 166 490 468 704 822 823 835 585 539 288 704 864 732 941 1140
0 0 0 2 0 54 58 69 105 222 133 32 30 661 993 701 490 454 481 447 472 413 285 183 133 96 90 130 171 412 399 435 762 868 824 805 707 688 969 776 747 965 1067 1392
0 0 0 0 0 38 73 119 127 168 110 169 41 926 837 761 590 621 619 505 491 446 398 340 195 131 279 214 406 469 621 700 795 850 802 701 535 606 847 704 516 1012 1431 1288
0 0 0 0 0 0 0 0 42 144 0 2 3 251 1079 955 798 738 642 557 508 517 450 486 300 255 459 446 520 496 741 734 859 933 818 810 805 689 838 796 774 1131 1259 1604
0 0 0 0 0 0 0 0 0 0 0 4 25 5 0 939 1109 932 713 379 547 621 503 586 515 364 459 713 624 878 666 763 1059 1259 1042 1081 1179 720 1006 959 795 513 792 1434
0 0 0 0 0 0 0 0 0 0 0 0 0 0 0 146 734 1020 1003 653 455 806 645 651 632 509 530 852 792 1194 814 797 1313 1470 1222 1319 1278 1125 1041 1062 914 564 513 1324
0 0 0 0 0 0 0 0 0 0 0 0 0 0 33 330 193 438 480 373 642 940 808 664 688 718 667 790 872 1119 1493 1140 1240 1994 1827 1587 1509 1279 1428 1221 957 389 250 829
0 0 0 0 0 0 0 0 0 0 0 0 0 0 252 415 297 399 294 318 391 751 994 814 724 694 737 789 980 834 1472 1509 1447 1365 1992 1722 1676 1386 1368 1172 1124 636 604 932
0 0 0 0 0 0 0 0 0 0 0 0 0 0 0 526 549 508 355 48 101 194 688 886 764 782 807 925 1049 1160 1041 1447 1663 1624 1435 2262 1866 1532 1304 1311 1166 867 954 981
0 0 0 0 0 0 0 0 0 0 0 0 0 0 57 130 221 91 51 26 272 417 760 943 1086 980 971 891 1085 1525 1343 1359 1747 1862 1710 1678 2475 1937 1685 1394 1160 1156 1259 1198
0 0 0 0 0 0 0 0 0 0 0 0 0 0 6 184 95 128 109 119 226 138 156 866 1055 1119 1091 1097 1121 1362 1624 1578 1874 2225 2070 1936 1989 2635 2004 1558 1247 1488 1503 1219
0 0 0 0 0 0 0 0 0 0 0 0 0 0 8 75 132 153 136 99 251 494 740 985 1088 1008 1102 1230 1282 1364 1799 1851 2036 2234 2457 2337 2032 2533 2496 2180 1980 1794 1513 1225
0 0 0 0 0 0 0 0 1 4 0 0 0 0 142 186 393 266 307 568 740 1225 1322 1009 946 1158 1232 1301 1454 1639 1948 2188 2449 2383 2704 2649 2450 2470 2515 2412 2025 1885 1513 1315
0 0 0 0 0 0 0 0 0 9 19 0 0 0 785 714 809 1122 1218 1521 1613 1899 2179 2191 2095 2146 1779 1286 1582 1911 2209 2531 2772 2740 2878 2842 2714 2636 2544 2469 2179 1874 1434 1375
0 0 0 0 0 0 0 0 0 0 0 0 0 161 656 1417 1703 1650 1617 1545 1571 1657 1758 1853 2020 1993 2188 2699 1719 2096 2558 2845 2932 2920 2920 2895 2805 2684 2652 2599 2404 1966 1563 1642
0 0 0 0 0 0 0 0 0 0 0 9 177 554 823 990 1691 1947 1842 1668 1488 1513 1464 1273 956 1039 1741 2495 2865 2023 2739 3082 3110 2955 2827 2817 2721 2650 2622 2581 2478 2220 2016 1869
0 0 0 0 0 0 0 0 0 0 449 583 595 597 735 657 657 677 1204 1529 1531 1213 1174 877 303 116 67 1664 3010 2461 2902 3165 3185 2992 2771 2720 2630 2571 2513 2466 2389 2247 2076 1821
0 0 0 0 0 0 0 0 0 0 397 716 710 677 552 411 926 900 531 298 500 303 1029 785 1229 1124 1472 2283 3041 2941 2778 3094 3132 2911 2750 2698 2645 2554 2456 2434 2384 2284 1995 1672
0 0 0 0 0 0 0 2 4 3 123 695 677 662 589 445 824 977 1429 1674 2240 2298 2294 2124 2276 2371 2144 2321 3429 3020 2919 3119 3161 2971 2845 2737 2711 2612 2473 2462 2416 2305 1871 1528
0 0 0 0 0 0 0 23 54 22 10 475 500 548 571 479 509 730 1851 1864 2520 2515 2400 2143 1952 1973 1947 1835 3111 3408 3083 3035 3115 3039 2942 2834 2681 2586 2522 2445 2370 2309 1783 1301
0 0 0 0 0 0 0 0 0 0 0 7 96 223 662 454 334 352 358 652 781 946 2498 2324 2124 1819 1946 1826 2257 3389 3225 3418 3271 3245 2736 2539 2554 2459 2367 2296 2341 2232 1861 1008
0 0 0 0 0 0 0 0 0 0 0 0 1 388 509 465 409 301 163 130 273 394 2140 2350 2285 1880 1639 1851 1730 2578 3157 3247 3137 2878 2827 2539 2354 2294 1900 1642 1480 1989 1564 988
0 0 0 0 0 0 0 0 0 0 0 0 0 0 76 167 166 188 194 155 119 66 2 1637 2211 2233 1984 1682 1701 1809 2391 2752 2688 2258 2560 2363 2274 1999 1989 1298 1094 1562 1480 1187
0 0 0 0 0 0 0 0 0 0 0 0 0 0 0 0 0 0 1 43 51 42 46 155 1810 2076 2178 2102 1794 1540 1803 2228 2402 2507 2564 2435 2418 2509 2407 2014 1846 1606 1421 1357
0 0 0 0 0 0 0 0 0 0 0 0 0 0 0 0 0 0 0 0 0 0 0 7 470 1344 1860 2182 2267 1878 1504 1800 2092 2165 2255 2486 2394 2240 1963 1915 1789 1653 1251 913
CIN
-0 -0 -0 -143 -0 -126 -131 -75 -135 -53 -160 -242 -74 -51 -191 -70 -118 -119 -122 -151 -195 -216 -190 -137 -100 -64 -53 -76 -85 -54 -90 -68 -124 -137 -135 -86 -47 -37 -31 -26 -45 -44 -59 -35
-0 -0 -0 -52 -140 -176 -86 -37 -129 -183 -86 -106 -61 -54 -64 -135 -140 -138 -138 -149 -161 -172 -211 -194 -104 -59 -36 -109 -60 -21 -95 -58 -140 -119 -107 -68 -48 -41 -148 -129 -78 -107 -30 -20
-0 -0 -0 -50 -0 -164 -155 -30 -70 -91 -173 -72 -125 -85 -152 -161 -191 -84 -107 -121 -105 -104 -136 -201 -155 -111 -144 -25 -23 -9 -62 -89 -168 -107 -83 -47 -39 -102 -52 -75 -48 -46 -28 -14
-0 -0 -0 -0 -0 -188 -102 -68 -60 -52 -68 -19 -163 -47 -129 -94 -72 -71 -75 -122 -143 -126 -111 -106 -97 -145 -198 -70 -36 -13 -239 -206 -172 -86 -89 -71 -65 -63 -33 -81 -110 -38 -18 -26
-0 -0 -0 -0 -0 -0 -0 -0 -184 -103 -0 -151 -26 -112 -48 -82 -69 -59 -94 -139 -145 -168 -115 -69 -65 -71 -204 -117 -80 -71 -230 -206 -183 -187 -151 -90 -66 -68 -60 -73 -30 -27 -24 -34
-0 -0 -0 -0 -0 -0 -0 -0 -0 -0 -0 -67 -22 -13 -0 -87 -86 -51 -94 -110 -186 -149 -119 -74 -48 -45 -285 -252 -243 -253 -256 -201 -204 -181 -150 -74 -37 -104 -75 -73 -36 -14 -80 -39
-0 -0 -0 -0 -0 -0 -0 -0 -0 -0 -0 -0 -0 -2 -0 -155 -115 -79 -61 -72 -47 -167 -106 -78 -52 -40 -321 -271 -248 -253 -284 -141 -186 -165 -106 -60 -25 -32 -85 -72 -30 -33 -106 -47
-0 -0 -0 -0 -0 -0 -0 -0 -0 -0 -0 -0 -0 -0 -33 -59 -201 -91 -69 -42 -43 -41 -107 -73 -60 -26 -79 -283 -257 -268 -235 -202 -193 -102 -79 -50 -31 -85 -40 -54 -51 -56 -176 -90
-0 -0 -0 -0 -0 -0 -0 -0 -0 -0 -0 -0 -0 -0 -66 -64 -128 -77 -148 -58 -76 -74 -48 -55 -53 -43 -21 -319 -307 -310 -278 -245 -215 -166 -143 -88 -48 -92 -61 -49 -21 -73 -91 -70
-0 -0 -0 -0 -0 -0 -0 -0 -0 -0 -0 -0 -0 -0 -0 -41 -69 -115 -151 -80 -57 -248 -143 -46 -66 -52 -33 -245 -317 -326 -346 -298 -252 -225 -225 -147 -84 -81 -102 -60 -53 -76 -80 -81
-0 -0 -0 -3 -0 -0 -0 -0 -0 -0 -0 -0 -0 -0 -71 -74 -81 -114 -48 -178 -135 -96 -8 -60 -42 -38 -52 -30 -335 -359 -363 -323 -266 -249 -244 -217 -122 -90 -88 -91 -100 -59 -67 -37
-0 -0 -0 -0 -0 -0 -0 -0 -0 -0 -0 -0 -0 -0 -48 -49 -33 -56 -54 -115 -60 -40 -82 -26 -34 -42 -48 -43 -24 -386 -357 -341 -304 -279 -265 -246 -204 -78 -95 -115 -118 -57 -38 -66
-0 -0 -0 -0 -0 -0 -0 -0 -0 -0 -0 -0 -0 -0 -16 -46 -36 -54 -54 -23 -131 -148 -116 -9 -22 -223 -73 -366 -344 -122 -388 -363 -346 -293 -281 -241 -233 -161 -100 -82 -67 -46 -43 -41
-0 -0 -0 -0 -0 -0 -0 -0 -14 -28 -0 -0 -0 -0 -122 -210 -56 -115 -207 -116 -215 -317 -287 -101 -143 -123 -213 -350 -346 -393 -380 -356 -315 -306 -285 -276 -211 -209 -150 -88 -86 -69 -77 -70
-0 -0 -0 -0 -0 -0 -0 -0 -3 -22 -47 -0 -0 -0 -202 -478 -406 -269 -219 -188 -147 -154 -151 -162 -230 -189 -131 -70 -252 -356 -357 -338 -318 -299 -275 -285 -266 -211 -161 -116 -106 -96 -114 -93
-0 -0 -0 -0 -0 -0 -0 -0 -0 -0 -0 -0 -0 -232 -268 -174 -165 -149 -146 -151 -132 -138 -151 -121 -90 -91 -95 -117 -50 -223 -302 -331 -324 -302 -314 -270 -230 -212 -197 -155 -123 -121 -120 -71
-0 -0 -0 -0 -0 -0 -0 -0 -0 -0 -0 -14 -69 -141 -306 -161 -78 -83 -92 -77 -90 -94 -107 -122 -117 -98 -86 -296 -190 -193 -219 -293 -282 -307 -282 -254 -223 -181 -168 -162 -134 -120 -104 -54
-0 -0 -0 -0 -0 -0 -0 -0 -0 -0 -23 -27 -41 -42 -254 -109 -120 -88 -56 -37 -31 -37 -35 -20 -23 -57 -72 -548 -131 -219 -210 -206 -269 -258 -252 -234 -195 -180 -161 -137 -120 -97 -94 -70
-0 -0 -0 -0 -0 -0 -0 -0 -0 -0 -72 -55 -43 -40 -73 -29 -142 -177 -274 -92 -202 -164 -186 -228 -223 -219 -208 -217 -99 -131 -267 -193 -187 -222 -210 -222 -201 -172 -145 -114 -84 -52 -80 -75
-0 -0 -0 -0 -0 -0 -0 -6 -20 -6 -60 -41 -39 -52 -51 -59 -106 -109 -122 -109 -87 -111 -115 -166 -170 -140 -167 -59 -65 -117 -105 -195 -203 -188 -174 -172 -196 -164 -117 -82 -54 -40 -52 -65
-0 -0 -0 -0 -0 -0 -0 -126 -97 -14 -50 -51 -62 -68 -72 -70 -121 -129 -34 -70 -80 -96 -119 -166 -247 -234 -254 -238 -110 -91 -98 -113 -149 -142 -154 -129 -133 -82 -55 -47 -36 -28 -32 -83
-0 -0 -0 -0 -0 -0 -0 -0 -0 -0 -0 -41 -75 -41 -43 -64 -60 -79 -85 -65 -72 -122 -97 -107 -109 -253 -250 -327 -228 -65 -72 -76 -115 -115 -85 -66 -43 -40 -23 -13 -17 -13 -22 -79
-0 -0 -0 -0 -0 -0 -0 -0 -0 -0 -0 -0 -5 -49 -26 -28 -33 -47 -89 -68 -83 -86 -134 -108 -105 -115 -143 -254 -274 -137 -55 -65 -57 -39 -42 -37 -43 -44 -75 -53 -29 -6 -5 -47
-0 -0 -0 -0 -0 -0 -0 -0 -0 -0 -0 -0 -0 -0 -61 -38 -34 -36 -52 -81 -115 -127 -17 -178 -101 -91 -87 -196 -222 -218 -117 -87 -105 -54 -5 -25 -27 -39 -13 -23 -18 -7 -3 -5
-0 -0 -0 -0 -0 -0 -0 -0 -0 -0 -0 -0 -0 -0 -0 -0 -0 -0 -65 -114 -157 -191 -163 -341 -116 -80 -52 -46 -71 -208 -160 -82 -53 -69 -40 -42 -21 -6 -6 -1 -4 -3 -9 -3
-0 -0 -0 -0 -0 -0 -0 -0 -0 -0 -0 -0 -0 -0 -0 -0 -0 -0 -0 -0 -0 -0 -0 -60 -296 -183 -86 -31 -20 -35 -171 -108 -41 -15 -30 -7 -1 -0 -2 -0 -6 -1 -28 -44
Wind_Speed
nan nan nan nan nan nan nan nan nan nan 14 12 16 23 24 33 28 35 44 40 40 33 31 nan nan nan nan nan nan 13 12 10 10 8 5 3 4 5 6 7 5 4 8 8
nan nan nan nan nan nan nan nan nan 13 10 nan nan nan 7 22 34 43 40 37 34 33 21 23 nan nan nan nan 14 13 18 17 19 15 15 11 8 2 4 7 4 4 8 9
nan nan nan nan nan nan nan nan 20 19 24 nan nan 12 6 15 20 32 29 37 19 31 29 22 22 nan nan 22 21 16 19 21 19 15 9 8 11 10 13 17 7 7 2 4
nan nan nan nan nan nan nan 13 16 10 20 17 nan 19 13 10 18 19 24 20 25 34 22 26 23 15 23 24 18 13 15 17 15 13 13 11 14 15 16 15 19 17 13 10
nan nan nan nan nan nan nan nan nan 8 nan nan nan 16 11 8 16 19 24 19 29 43 22 21 26 20 19 17 19 14 11 13 14 15 15 14 12 13 12 14 15 14 15 15
nan nan nan nan nan nan nan nan nan nan nan nan nan nan nan 17 30 26 23 21 28 29 20 21 25 18 16 14 14 16 13 12 12 13 12 13 14 10 7 11 10 10 11 11
nan nan nan nan nan nan nan nan nan nan nan nan nan nan nan 24 25 23 27 22 28 19 20 17 20 21 15 18 15 14 15 12 11 13 14 15 13 12 10 11 11 9 8 6
nan nan nan nan nan nan nan nan nan nan nan nan nan nan nan 3 11 15 9 12 18 1 5 22 27 19 21 20 19 15 14 12 10 10 13 12 13 9 7 9 8 10 10 9
nan nan nan nan nan nan nan nan nan nan nan nan nan nan 3 6 3 5 9 17 23 8 4 18 26 20 17 21 26 21 16 13 13 12 9 11 11 10 8 9 8 9 10 7
nan nan nan nan nan nan nan nan nan nan nan nan nan nan nan 5 16 9 14 nan 21 19 10 7 15 19 13 18 23 23 21 19 16 14 12 11 11 10 7 8 10 16 19 9
nan nan nan nan nan nan nan nan nan nan nan nan nan nan nan 14 12 nan nan nan 25 20 10 9 15 14 16 15 19 20 21 20 16 14 14 12 8 8 8 9 11 15 17 19
nan nan nan nan nan nan nan nan nan nan nan nan nan nan nan 20 nan 18 19 29 22 30 18 10 14 15 19 17 19 19 18 21 20 19 18 14 10 7 8 10 10 13 14 13
nan nan nan nan nan nan nan nan nan nan nan nan nan nan nan nan 6 14 11 nan 17 12 5 18 14 14 16 16 20 19 19 20 22 22 21 17 13 11 10 8 11 13 17 13
nan nan nan nan nan nan nan nan nan nan nan nan nan nan 23 16 22 28 15 16 24 26 32 28 22 11 20 21 26 23 17 19 19 23 21 21 15 15 16 16 15 14 14 18
nan nan nan nan nan nan nan nan nan nan nan nan nan nan 27 26 25 28 27 32 32 31 34 35 36 35 31 16 9 17 18 19 20 18 18 18 16 21 21 23 22 17 17 16
nan nan nan nan nan nan nan nan nan nan nan nan nan 40 39 34 26 35 37 41 44 41 41 43 46 41 42 34 10 8 13 20 24 17 14 17 17 22 27 29 26 22 20 18
nan nan nan nan nan nan nan nan nan nan nan nan 43 41 36 37 47 43 41 46 46 46 45 40 43 44 43 43 34 19 20 24 23 23 19 19 21 22 26 29 30 26 25 25
nan nan nan nan nan nan nan nan nan nan 27 32 42 41 38 43 43 42 36 42 45 44 40 41 38 40 nan 46 31 22 31 26 27 28 27 25 26 25 30 31 30 30 31 29
nan nan nan nan nan nan nan nan nan nan 34 28 31 35 41 46 53 51 42 41 44 48 49 50 55 53 55 42 33 11 35 34 28 29 29 32 32 30 33 32 35 36 36 32
nan nan nan nan nan nan nan nan nan nan 35 32 29 33 33 35 42 37 41 41 43 48 53 57 52 50 49 10 18 23 28 33 24 28 29 30 32 33 34 37 39 41 43 44
nan nan nan nan nan nan nan nan nan nan nan 36 33 33 34 35 32 31 37 37 39 42 45 48 50 36 24 22 34 36 31 27 30 39 39 38 35 36 36 41 46 47 45 47
nan nan nan nan nan nan nan nan nan nan nan nan nan 37 34 35 37 35 33 31 30 25 25 28 30 26 26 34 34 38 39 37 43 49 46 44 42 39 42 44 49 48 46 45
nan nan nan nan nan nan nan nan nan nan nan nan nan 39 40 41 39 39 34 35 34 34 31 27 27 25 28 37 40 40 36 39 39 44 46 43 43 42 43 47 49 37 39 43
nan nan nan nan nan nan nan nan nan nan nan nan nan nan nan 45 43 41 37 32 30 nan nan 33 30 30 29 32 41 45 40 43 41 37 41 43 40 43 46 50 35 34 41 45
nan nan nan nan nan nan nan nan nan nan nan nan nan nan nan nan nan nan nan nan nan nan nan 38 33 31 31 33 32 37 40 42 43 42 42 42 49 33 42 46 43 39 44 49
nan nan nan nan nan nan nan nan nan nan nan nan nan nan nan nan nan nan nan nan nan nan nan nan 38 39 32 35 35 34 37 41 42 43 44 39 38 42 44 47 45 54 51 48
Wind_Direction
nan nan nan nan nan nan nan nan nan nan 81 55 57 45 17 29 5 10 2 10 13 25 28 nan nan nan nan nan nan 17 15 25 45 59 58 206 207 251 254 242 240 253 267 274
nan nan nan nan nan nan nan nan nan 357 8 nan nan nan 56 6 17 10 9 10 12 16 24 31 nan nan nan nan 43 50 43 43 50 47 65 84 89 74 287 225 92 23 271 279
nan nan nan nan nan nan nan nan 328 325 336 nan nan 315 135 20 18 16 1 357 25 14 17 12 26 nan nan 31 34 31 35 36 43 48 61 86 89 66 58 55 53 70 56 215
nan nan nan nan nan nan nan 360 337 357 304 322 nan 339 359 341 19 358 9 36 33 11 17 16 17 20 32 30 27 17 24 35 47 45 49 47 51 50 60 52 59 67 79 83
nan nan nan nan nan nan nan nan nan 337 nan nan nan 295 46 318 11 357 9 29 352 354 354 5 17 17 16 28 19 12 16 27 44 49 43 47 50 56 64 58 45 64 74 76
nan nan nan nan nan nan nan nan nan nan nan nan nan nan nan 334 2 13 12 10 349 358 340 357 10 19 11 11 21 13 4 38 41 43 37 27 23 24 30 40 36 48 66 74
nan nan nan nan nan nan nan nan nan nan nan nan nan nan nan 5 16 15 24 22 340 320 349 359 20 10 16 4 13 13 11 36 46 36 22 12 15 15 15 24 27 27 36 54
nan nan nan nan nan nan nan nan nan nan nan nan nan nan nan 61 5 15 34 304 346 308 37 5 20 19 11 6 8 1 356 353 4 10 359 1 358 12 15 17 22 20 21 25
nan nan nan nan nan nan nan nan nan nan nan nan nan nan 127 232 4 19 327 311 312 256 139 22 14 19 20 7 10 4 346 335 341 343 335 356 355 357 3 358 354 3 344 321
nan nan nan nan nan nan nan nan nan nan nan nan nan nan nan 348 22 3 357 nan 301 300 234 90 24 18 21 5 2 3 355 344 336 332 336 348 360 17 11 4 23 15 13 344
nan nan nan nan nan nan nan nan nan nan nan nan nan nan nan 351 315 nan nan nan 311 296 262 79 27 21 12 0 344 349 356 351 336 332 333 348 356 18 0 7 10 8 16 10
nan nan nan nan nan nan nan nan nan nan nan nan nan nan nan 157 nan 332 320 314 330 323 331 38 49 8 2 350 338 334 341 346 343 334 325 339 345 346 355 4 357 350 352 4
nan nan nan nan nan nan nan nan nan nan nan nan nan nan nan nan 229 288 246 nan 292 308 315 360 335 357 347 331 330 326 331 341 340 330 324 325 330 331 347 331 319 326 327 340
nan nan nan nan nan nan nan nan nan nan nan nan nan nan 219 201 227 226 205 243 241 233 226 231 217 266 331 328 331 316 322 327 324 338 328 325 324 328 329 321 318 317 321 322
nan nan nan nan nan nan nan nan nan nan nan nan nan nan 236 227 231 233 234 232 234 237 233 236 236 224 208 204 319 296 299 303 313 333 336 333 319 317 314 307 312 312 313 313
nan nan nan nan nan nan nan nan nan nan nan nan nan 253 243 237 241 238 237 241 241 236 245 250 251 248 245 240 232 233 276 290 297 305 329 310 307 309 301 302 306 311 304 311
nan nan nan nan nan nan nan nan nan nan nan nan 247 253 248 243 250 258 258 256 257 256 252 251 255 254 250 243 237 277 304 268 272 282 280 289 293 293 294 296 297 305 298 299
nan nan nan nan nan nan nan nan nan nan 242 243 248 248 247 246 250 253 255 262 264 264 265 262 260 264 nan 235 227 256 284 285 260 262 267 272 279 287 290 292 296 294 289 288
nan nan nan nan nan nan nan nan nan nan 252 238 259 247 245 248 247 244 256 254 257 262 266 269 269 270 259 267 245 261 280 290 264 262 265 270 275 277 280 286 289 279 279 269
nan nan nan nan nan nan nan nan nan nan 251 255 257 267 263 263 251 244 238 247 246 256 263 265 271 281 286 290 232 266 277 278 270 255 260 263 269 269 274 274 275 275 276 270
nan nan nan nan nan nan nan nan nan nan nan 263 265 273 277 276 279 277 273 269 271 268 267 267 268 272 261 250 240 244 250 257 248 236 246 256 260 261 263 265 266 272 275 286
nan nan nan nan nan nan nan nan nan nan nan nan nan 281 276 278 286 287 281 271 263 264 271 263 259 258 240 228 230 238 247 246 253 247 245 254 260 260 256 255 257 265 274 282
nan nan nan nan nan nan nan nan nan nan nan nan nan 275 278 280 277 274 273 275 274 270 278 274 272 261 243 233 234 237 243 245 255 259 255 259 262 260 261 260 257 258 270 276
nan nan nan nan nan nan nan nan nan nan nan nan nan nan nan 276 280 280 279 271 266 nan nan 271 265 259 256 248 237 241 237 247 250 257 253 255 260 268 273 275 280 277 272 274
nan nan nan nan nan nan nan nan nan nan nan nan nan nan nan nan nan nan nan nan nan nan nan 270 272 264 262 262 252 243 241 241 248 259 268 269 242 258 266 267 276 277 277 282
nan nan nan nan nan nan nan nan nan nan nan nan nan nan nan nan nan nan nan nan nan nan nan nan 269 261 257 260 261 259 252 253 251 257 261 265 268 259 263 264 266 254 264 273